Spokane International Airport
KGEG : now visible

Airfield :











YOU CAN JOIN US ON...

 
LOGIN :

Register | Disclaimer

   EN    FR    IT 

 









Legend :    VFR   Marginal VFR   IFR   Intensive IFR   Very Intensive IFR
Visi :
Ceiling :
>= 8 km
>= 3000ft
5 to 8 km
1000 to 3000 ft
1500m to 5 km
500 to 1000 ft
800 to 1500m
200 to 500 ft
< 800m
< 200 ft
Symbols :   Thunderstorms  Fog  Heavy snow  Heavy precipitations  Wind > 20 kt






- Airport Elevation : 2376 ft
- IATA code : GEG


KGEG - Spokane International

CURRENT METAR :
  • 190853Z 17007KT 10SM SCT200 17/03 A2989 RMK AO2 SLP106 T01720033 58003

EXPIRED METARs :
  • 190753Z 15005KT 10SM SCT200 20/02 A2990 RMK AO2 SLP106 T02000022 402940133
  • 190653Z 18004KT 10SM SCT200 21/03 A2990 RMK AO2 SLP108 T02060033

TAF KGEG
Valid from the 19 at 06:00 until the 20 at 06:00 UTC


190520Z 1906/2006 29006KT P6SM FEW200
FM190900 18007KT P6SM SCT250
FM191700 23011G19KT P6SM SCT200
FM200000 24008KT P6SM BKN250
KZSE FIR / North America



MET'MAP, your aeronautical weather chart ! - Copyright ORBIFLY December 2007 - Disclaimer

ORBIFLY MET'MAP TEAM :

Programming & Development : Alexandra Zaïnal
Concept & original design : Baudouin d'Aumeries
Assistance for programming : Marc-Olivier Méhu
Technical & hardware support : Manuel Goepfert

Contact : metmap@orbifly.com




SOURCES & CREDITS :

   NOAA       Earth
Advisory